Regional Weather Roundup
Issued by NWS

Home | Current Version | Previous Version | Text Only | Print | Product List | Glossary Off
Versions: 1 2 3 4 5 6 7 8 9 10 11 12 13 14 15 16 17 18 19 20 21 22 23 24 25 26 27

000
ASUS43 KDMX 180807
RWRIA

WEATHER ROUNDUP FOR IOWA
NATIONAL WEATHER SERVICE DES MOINES IA
300 AM CDT FRI APR 18 2014

NOTE: "FAIR" INDICATES FEW OR NO CLOUDS BELOW 12,000 FEET WITH NO
SIGNIFICANT WEATHER AND/OR OBSTRUCTIONS TO VISIBILITY.

* - THESE STATIONS ARE NOT NWS STATIONS...THUS NOT UNDER NWS
QUALITY CONTROL.  THEY ALSO DO NOT REPORT WEATHER SUCH
AS PRECIPITATION OR FOG.

IAZ001>003-012>014-020>022-031>034-043>046-180900-
   NORTHWEST IOWA

CITY           SKY/WX    TMP DP  RH WIND       PRES   REMARKS
CARROLL *      MOCLDY    30  28  93 CALM      30.28S
CHEROKEE *     CLEAR     30  27  86 CALM      30.27F
DENISON *      MOCLDY    34  30  86 E7        30.25F WCI  28
LE MARS *      CLEAR     36  30  80 SE12G22   30.25F WCI  27
ORANGE CITY *  PTCLDY    36  28  75 E6        30.24F WCI  31
SHELDON *      CLOUDY    32  28  86 E9        30.25F WCI  24
SIOUX CITY     CLEAR     32  25  75 SE6       30.25F WCI  26
SPENCER        PTCLDY    30  27  88 SE6       30.28S WCI  24
STORM LAKE *   CLEAR     30  28  93 SE8       30.28S WCI  23
$$

IAZ055>058-069>071-079>083-090>094-180900-
   SOUTHWEST IOWA

CITY           SKY/WX    TMP DP  RH WIND       PRES   REMARKS
ATLANTIC *     CLOUDY    32  27  80 N3        30.27S
AUDUBON *      CLEAR     34  27  75 CALM      30.27F
CLARINDA *     CLEAR     30  28  93 CALM      30.28F
COUNCIL BLFS * CLEAR     39  25  56 SE3       30.24F
CRESTON *      CLEAR     32  28  86 NE8       30.27S WCI  25
LAMONI         CLEAR     38  31  76 SW7       30.27S WCI  33
RED OAK *      CLEAR     32  27  80 CALM      30.27S
SHENANDOAH *   CLEAR     30  28  93 NE3       30.28S
$$

IAZ047>049-059>061-072>074-084-180900-
   CENTRAL IOWA

CITY           SKY/WX    TMP DP  RH WIND       PRES   REMARKS
AMES           CLEAR     32  28  85 CALM      30.30S
ANKENY *       CLEAR     34  30  86 CALM      30.30S
CHARITON *     PTCLDY    36  30  80 NE5       30.29S WCI  32
DES MOINES     PTCLDY    38  30  73 E6        30.30S WCI  33
GRINNELL*      CLEAR     30  28  93 NE5       30.29F WCI  25
KNOXVILLE *    CLEAR     36  30  80 NE5       30.29S WCI  32
MARSHALLTOWN   CLEAR     31  28  89 NE7       30.29F WCI  24
NEWTON *       CLEAR     32  30  93 NE7       30.30S WCI  26
PELLA *        CLEAR     34  30  86 CALM      30.31S
PERRY *          N/A     34  28  80 E5        30.28F WCI  30
$$

IAZ004>006-015-016-023>025-035-036-180900-
   NORTH CENTRAL IOWA

CITY           SKY/WX    TMP DP  RH WIND       PRES   REMARKS
ALGONA *       PTCLDY    32  28  86 SE6       30.30S WCI  26
CLARION *      CLEAR     30  28  93 E8        30.30S WCI  23
ESTHERVILLE    PTCLDY    26  26 100 SE7       30.28F FOG     WCI  18
FORT DODGE *   CLEAR     28  25  86 E6        30.30S WCI  22
MASON CITY     FOG       25  24  96 CALM      30.31F VSB 1/4
FOREST CITY *  CLEAR     28  28 100 CALM      30.29F FOG
IOWA FALLS *     N/A     30  28  93 NE3       30.31S
$$

IAZ007>011-017>019-026>030-037>042-050>054-066-180900-
   NORTHEAST IOWA

CITY           SKY/WX    TMP DP  RH WIND       PRES   REMARKS
CEDAR RAPIDS   CLEAR     30  25  81 N9        30.29S WCI  22
CHARLES CITY * CLEAR     30  27  86 NE5       30.31S WCI  25
CLINTON *      CLEAR     32  28  86 N10       30.31F WCI  24
DECORAH *      CLEAR     28  28 100 CALM      30.30S FOG
DUBUQUE        CLEAR     31  28  89 N9        30.29S WCI  23
MONTICELLO *   CLEAR     30  30 100 N6        30.30F WCI  24
OELWEIN *      CLEAR    N/A N/A N/A N5        30.31S
WATERLOO       CLEAR     28  25  88 N3        30.31F
$$

IAZ064-065-067-068-078-180900-
   EAST CENTRAL IOWA

CITY           SKY/WX    TMP DP  RH WIND       PRES   REMARKS
DAVENPORT      CLEAR     33  30  88 N8        30.30F WCI  26
IOWA CITY      CLEAR     35  30  82 N6        30.31S WCI  30
MT. PLEASANT * CLEAR     36  32  87 N7        30.30S WCI  30
MUSCATINE *    CLEAR     34  30  86 N5        30.31R WCI  30
QUAD CITIES    CLEAR     39  32  76 N3        30.29S
$$

IAZ062-063-075>077-085>089-095>099-180900-
   SOUTHEAST IOWA

CITY           SKY/WX    TMP DP  RH WIND       PRES   REMARKS
BURLINGTON     CLEAR     38  32  79 N6        30.28S WCI  33
FAIRFIELD *    CLEAR     32  28  86 NE7       30.29S WCI  26
FORT MADISON * CLEAR     39  34  81 CALM      30.29S
KEOKUK *       CLEAR     39  34  81 CALM      30.28S
OSKALOOSA *      N/A     32  30  93 NE6       30.30S WCI  26
CENTERVILLE *  CLEAR     36  32  87 NE5       30.30S WCI  32
OTTUMWA        CLEAR     34  29  82 NE8       30.29S WCI  27
WASHINGTON *   PTCLDY    32  30  93 N6        30.30S WCI  26
$$

ABBREVIATIONS USED IN REMARKS
   TC - TEMPERATURES IN CELSIUS
  WCI - WIND CHILL INDEX
   HX - HEAT INDEX
  VSB - VISIBILITY
$$




USA.gov is the U.S. government's official web portal to all federal, state and local government web resources and services.